Milton, FL

9:24 AM CST on December 10, 2016 (GMT -0600)
Whiting Field Naval Air Station (North)

Weather History for KNSE - March, 2012

Change the Weather History Date:

Thursday, March 15, 2012

  Actual Average Record
Temperature  
Mean Temperature 70 °F -  
Max Temperature 87 °F 68 °F 87 °F (2012)
Min Temperature 57 °F 49 °F 35 °F (2013)
Cooling Degree Days 6    
Growing Degree Days 20 (Base 50)    
Moisture  
Dew Point 61 °F    
Average Humidity 85    
Maximum Humidity 100    
Minimum Humidity 41    
Precipitation  
Precipitation 0.00 in - - ()
Sea Level Pressure  
Sea Level Pressure 30.20 in    
Wind  
Wind Speed 1 mph (WNW)    
Max Wind Speed 12 mph    
Max Gust Speed 16 mph    
Visibility 5 miles    
Events Fog    
Averages and records for this station are not official NWS values.
T = Trace of Precipitation, MM = Missing Value Source: NWS Daily Summary

Daily Weather History Graph

Daily Weather History Graph

Search for Another Location

Airport or City:

Trip Planner

Search our weather history database for the weather conditions in past years. The results will help you decide how hot, cold, wet, or windy it might be!

Date:

Astronomy

Mar. 15, 2012 Rise Set
Actual Time 6:57 AM CDT 6:56 PM CDT
Civil Twilight 6:33 AM CDT 7:20 PM CDT
Nautical Twilight 6:05 AM CDT 7:48 PM CDT
Astronomical Twilight 5:37 AM CDT 8:16 PM CDT
Moon 2:01 AM CDT (3/15) 12:36 PM CDT (3/15)
Length of Visible Light 12h 47m
Length of Day
11h 59m
Last Quarter, 43% of the Moon is Illuminated
Mar 15
Last Quarter
Mar 22
New
Mar 30
First Quarter
Apr 6
Full
Apr 13
Last Quarter

Hourly Weather History & Observations

Time (CDT) Temp. Heat Index Dew Point Humidity Pressure Visibility Wind Dir Wind Speed Gust Speed Precip Events Conditions
12:45 AM 62.6 °F - 62.6 °F 100% 30.23 in 4.0 mi Calm Calm - N/A   Scattered Clouds
12:56 AM 62.1 °F - 61.0 °F 96% 30.19 in 4.0 mi Calm Calm - N/A   Scattered Clouds
1:03 AM 62.6 °F - 62.6 °F 100% 30.23 in 0.5 mi Calm Calm - N/A Fog Fog
1:07 AM 62.6 °F - 62.6 °F 100% 30.23 in 1.0 mi Calm Calm - N/A   Clear
1:20 AM 60.8 °F - 60.8 °F 100% 30.23 in 0.5 mi Calm Calm - N/A Fog Fog
1:31 AM 60.8 °F - 60.8 °F 100% 30.23 in 0.2 mi Calm Calm - N/A Fog Fog
1:49 AM 62.6 °F - 60.8 °F 94% 30.22 in 2.0 mi WNW 4.6 mph - N/A   Clear
1:56 AM 61.0 °F - 61.0 °F 100% 30.18 in 4.0 mi Calm Calm - N/A   Clear
2:29 AM 62.6 °F - 62.6 °F 100% 30.21 in 1.5 mi Calm Calm - N/A   Clear
2:37 AM 60.8 °F - 60.8 °F 100% 30.21 in 0.2 mi Calm Calm - N/A Fog Fog
2:53 AM 60.8 °F - 60.8 °F 100% 30.21 in 1.2 mi Calm Calm - 0.00 in   Clear
2:56 AM 59.0 °F - 59.0 °F 100% 30.17 in 1.2 mi Calm Calm - 0.00 in   Clear
3:01 AM 60.8 °F - 59.0 °F 94% 30.21 in 0.8 mi NW 3.5 mph - N/A   Mist
3:08 AM 59.0 °F - 57.2 °F 94% 30.20 in 0.2 mi NNW 3.5 mph - N/A Fog Fog
3:40 AM 59.0 °F - 59.0 °F 100% 30.20 in 2.0 mi North 3.5 mph - N/A   Clear
3:47 AM 59.0 °F - 57.2 °F 94% 30.20 in 1.0 mi Calm Calm - N/A   Mist
3:56 AM 59.0 °F - 59.0 °F 100% 30.16 in 1.0 mi Calm Calm - N/A   Mist
4:10 AM 60.8 °F - 59.0 °F 94% 30.20 in 0.2 mi Calm Calm - N/A Fog Fog
4:56 AM 60.1 °F - 59.0 °F 96% 30.17 in 0.2 mi NNE 3.5 mph - 0.00 in Fog Fog
5:56 AM 60.1 °F - 60.1 °F 100% 30.19 in 0.5 mi Calm Calm - N/A Fog Fog
6:28 AM 60.8 °F - 60.8 °F 100% 30.25 in 2.0 mi North 3.5 mph - N/A Fog Fog
6:30 AM 60.8 °F - 60.8 °F 100% 30.25 in 0.8 mi Calm Calm - N/A   Mostly Cloudy
6:56 AM 57.9 °F - 57.9 °F 100% 30.22 in 0.8 mi Calm Calm - N/A   Scattered Clouds
7:42 AM 60.8 °F - 60.8 °F 100% 30.27 in 1.5 mi Calm Calm - N/A Fog Shallow Fog
7:56 AM 62.1 °F - 61.0 °F 96% 30.24 in 3.0 mi Calm Calm - N/A   Scattered Clouds
8:16 AM 64.4 °F - 64.4 °F 100% 30.29 in 5.0 mi Calm Calm - N/A   Scattered Clouds
8:56 AM 70.0 °F - 66.0 °F 87% 30.26 in 9.0 mi Calm Calm - N/A   Scattered Clouds
9:56 AM 73.9 °F - 66.0 °F 76% 30.26 in 10.0 mi NNW 3.5 mph - N/A   Scattered Clouds
10:56 AM 79.0 °F - 64.9 °F 62% 30.25 in 10.0 mi Calm Calm - N/A   Scattered Clouds
11:56 AM 81.0 °F 82.5 °F 64.0 °F 56% 30.24 in 10.0 mi East 4.6 mph - N/A   Scattered Clouds
12:56 PM 84.0 °F 84.9 °F 63.0 °F 49% 30.21 in 10.0 mi East 5.8 mph - N/A   Scattered Clouds
1:56 PM 84.9 °F 85.4 °F 62.1 °F 46% 30.18 in 10.0 mi Variable 4.6 mph - N/A   Mostly Cloudy
2:56 PM 82.9 °F 83.3 °F 61.0 °F 47% 30.16 in 10.0 mi Calm Calm - N/A   Scattered Clouds
3:56 PM 84.9 °F 84.4 °F 59.0 °F 41% 30.14 in 10.0 mi SSW 11.5 mph 16.1 mph N/A   Scattered Clouds
4:56 PM 84.9 °F 84.4 °F 59.0 °F 41% 30.14 in 10.0 mi SW 10.4 mph - N/A   Scattered Clouds
5:56 PM 79.0 °F - 60.1 °F 52% 30.14 in 10.0 mi SSW 9.2 mph - N/A   Scattered Clouds
6:56 PM 75.9 °F - 62.1 °F 62% 30.13 in 10.0 mi SSW 6.9 mph - N/A   Partly Cloudy
7:56 PM 72.0 °F - 63.0 °F 73% 30.15 in 10.0 mi SW 4.6 mph - N/A   Partly Cloudy
8:56 PM 70.0 °F - 62.1 °F 76% 30.16 in 10.0 mi SW 5.8 mph - N/A   Clear
9:56 PM 66.9 °F - 62.1 °F 84% 30.16 in 10.0 mi West 4.6 mph - N/A   Clear
10:56 PM 66.0 °F - 62.1 °F 87% 30.17 in 10.0 mi WNW 3.5 mph - N/A   Clear
11:56 PM 62.1 °F - 60.1 °F 93% 30.17 in 10.0 mi Calm Calm - N/A   Clear